Regional Weather Roundup
Issued by NWS

Home | Current Version | Previous Version | Graphics & Text | Print | Product List | Glossary On
Versions: 1 2 3 4 5 6 7 8 9 10 11 12 13 14 15 16 17 18 19 20 21 22 23 24 25 26 27 28 29 30 31 32 33 34 35 36 37 38 39 40 41 42 43 44 45 46 47 48 49 50
000
ASUS43 KFSD 242002
RWRSD

WEATHER ROUNDUP FOR SOUTH DAKOTA
NATIONAL WEATHER SERVICE SIOUX FALLS SD
300 PM CDT THU APR 24 2014

NOTE: "FAIR" INDICATES FEW OR NO CLOUDS BELOW 12,000 FEET WITH NO
SIGNIFICANT WEATHER AND/OR OBSTRUCTIONS TO VISIBILITY.


SDZ001>005-009-010-012>017-242100-
NORTHWEST AND NORTH CENTRAL SOUTH DAKOTA

CITY           SKY/WX    TMP DP  RH WIND       PRES   REMARKS
BUFFALO          N/A     57  22  25 W32G38    29.72F
FAITH            N/A     59  21  23 NW24G33   29.76F
MOBRIDGE       MOSUNNY   66  20  17 W23       29.69F
$$

SDZ012>016-024>037-041>051-057-063-072>074-242100-
SOUTHWEST AND SOUTH CENTRAL SOUTH DAKOTA

CITY           SKY/WX    TMP DP  RH WIND       PRES   REMARKS
RAPID CTY ARPT MOSUNNY   61  28  28 NE9       29.80F
PIERRE         MOSUNNY   65  24  21 NW29G44   29.74F
CUSTER         MOSUNNY   54  14  20 W18G29    29.84F
ELLSWORTH AFB  PTSUNNY   61  27  27 VRB7G17   29.80F
PHILIP         SUNNY     65  27  23 NW23G31   29.78F
PINE RIDGE     SUNNY     62  20  19 W17G31    29.82F
WINNER         FAIR      69  21  16 NW28G41   29.77F
$$

SDZ004>011-016>023-039-040-242100-
NORTHEAST SOUTH DAKOTA

CITY           SKY/WX    TMP DP  RH WIND       PRES   REMARKS
ABERDEEN       PTSUNNY   62  24  23 W23G32    29.68F
WATERTOWN      SUNNY     58  42  55 VRB7      29.70F
SISSETON         N/A     55  45  68 E10       29.70F
$$

SDZ017-020-022-023-036>040-048>070-242100-
SOUTHEAST SOUTH DAKOTA

CITY           SKY/WX    TMP DP  RH WIND       PRES   REMARKS
SIOUX FALLS    MOSUNNY   60  43  53 NW13G20   29.73F
HURON          MOSUNNY   68  22  17 NW24G41   29.70S
CHAMBERLAIN      N/A     66  26  22 NW20G30   29.75F
MITCHELL       SUNNY     71  22  15 NW28G38   29.72S
YANKTON        SUNNY     64  39  39 N15       29.74R
$$

ABBREVIATIONS USED IN REMARKS
   TC - TEMPERATURE IN CELSIUS
  WCI - WIND CHILL INDEX
   HX - HEAT INDEX
  VSB - VISIBILITY




USA.gov is the U.S. government's official web portal to all federal, state and local government web resources and services.